Flight Track Log - Related Links

Times and Time Zones

All times are in EDT time to prevent confusion due to time zone crossing. See the SKQ225 flight status page for this flight to view local times or setup timezone preferences in your user account.

Time Position Orientation Groundspeed Altitude Reporting Facility
EDT Latitude Longitude Course Direction KTS MPH feet Rate Location/Type
Fri 04:48:43 AM 38.2167 -85.6500 38° Northeast 130 150 3,100  Level Louisville TRACON
Fri 04:49:18 AM 38.2258 -85.6322 57° Northeast 131 151 3,300 563 Climbing Indianapolis Center
Fri 04:50:19 AM 38.2539 -85.5947 46° Northeast 136 157 4,000 793 Climbing Indianapolis Center
Fri 04:51:19 AM 38.2864 -85.5492 48° Northeast 148 170 4,900 744 Climbing Indianapolis Center
Fri 04:52:00 AM 38.3242 -85.5115 44° Northeast  Level FlightAware
Fri 04:52:20 AM 38.3136 -85.5139 45° Northeast 154 177 5,500  Level Indianapolis Center
Fri 04:53:00 AM 38.3602 -85.4731 38° Northeast  Level FlightAware
Fri 04:53:21 AM 38.3458 -85.4725 45° Northeast 162 186 6,400  Level Indianapolis Center
Fri 04:54:21 AM 38.3767 -85.4300 47° Northeast 162 186 7,000 298 Climbing Indianapolis Center
Fri 04:55:22 AM 38.4131 -85.3817 46° Northeast 180 207 7,000  Level Indianapolis Center
Fri 04:56:23 AM 38.4606 -85.3167 47° Northeast 204 235 7,000  Level Indianapolis Center
Fri 04:57:24 AM 38.4986 -85.2658 46° Northeast 199 229 7,000  Level Indianapolis Center
Fri 04:58:25 AM 38.5369 -85.2158 46° Northeast 197 227 7,000  Level Indianapolis Center
Fri 04:59:25 AM 38.5697 -85.1717 46° Northeast 200 230 7,000  Level Indianapolis Center
Fri 05:00:26 AM 38.6122 -85.1144 46° Northeast 192 221 7,000  Level Indianapolis Center
Fri 05:01:27 AM 38.6511 -85.0619 47° Northeast 194 223 7,000  Level Indianapolis Center
Fri 05:02:28 AM 38.6883 -85.0128 46° Northeast 193 222 7,000  Level Indianapolis Center
Fri 05:03:28 AM 38.7256 -84.9628 46° Northeast 194 223 7,000  Level Indianapolis Center
Fri 05:04:29 AM 38.7622 -84.9128 47° Northeast 193 222 7,000  Level Indianapolis Center
Fri 05:05:30 AM 38.7975 -84.8617 48° Northeast 193 222 7,000 49 Level Indianapolis Center
Fri 05:06:31 AM 38.8358 -84.8114 46° Northeast 197 227 7,100  Climbing Indianapolis Center
Fri 05:07:31 AM 38.8731 -84.7608 47° Northeast 197 227 7,000 -50 Descending Indianapolis Center
Fri 05:08:32 AM 38.9111 -84.7119 45° Northeast 195 224 7,000  Level Indianapolis Center
Fri 05:09:33 AM 38.9481 -84.6603 47° Northeast 195 224 7,000  Level Indianapolis Center
Fri 05:10:34 AM 38.9844 -84.6089 48° Northeast 193 222 7,000  Level Indianapolis Center
Fri 05:11:34 AM 39.0211 -84.5583 47° Northeast 193 222 7,000  Level Indianapolis Center
Fri 05:12:35 AM 39.0583 -84.5078 47° Northeast 192 221 7,000  Level Indianapolis Center
Fri 05:13:36 AM 39.0947 -84.4575 47° Northeast 191 220 7,000  Level Indianapolis Center
Fri 05:14:37 AM 39.1308 -84.4069 47° Northeast 192 221 7,000  Level Indianapolis Center
Fri 05:15:37 AM 39.1669 -84.3572 47° Northeast 189 217 7,000  Level Indianapolis Center
Fri 05:16:31 AM 39.2069 -84.3058 45° Northeast 189 217 7,000  Level Indianapolis Center
Fri 05:17:38 AM 39.2442 -84.2531 48° Northeast 191 220 7,000  Level Indianapolis Center
Fri 05:18:38 AM 39.2814 -84.2000 48° Northeast 192 221 7,000  Level Indianapolis Center
Fri 05:19:39 AM 39.3161 -84.1492 49° Northeast 192 221 7,000  Level Indianapolis Center
Fri 05:20:33 AM 39.3506 -84.1039 45° Northeast 190 219 7,000  Level Indianapolis Center
Fri 05:21:34 AM 39.3872 -84.0561 45° Northeast 190 219 7,000  Level Indianapolis Center
Fri 05:22:35 AM 39.4219 -84.0053 49° Northeast 191 220 7,000  Level Indianapolis Center
Fri 05:23:35 AM 39.4614 -83.9497 47° Northeast 191 220 7,000 50 Level Indianapolis Center
Fri 05:24:36 AM 39.4958 -83.9014 47° Northeast 190 219 7,100 50 Climbing Indianapolis Center
Fri 05:25:36 AM 39.5328 -83.8506 47° Northeast 191 220 7,100 -50 Level Indianapolis Center
Fri 05:26:37 AM 39.5694 -83.8000 47° Northeast 191 220 7,000 -49 Descending Indianapolis Center
Fri 05:27:38 AM 39.6064 -83.7492 47° Northeast 189 217 7,000 -50 Level Indianapolis Center
Fri 05:28:38 AM 39.6408 -83.6981 49° Northeast 192 221 6,900 -198 Descending Indianapolis Center
Fri 05:29:39 AM 39.6781 -83.6444 48° Northeast 195 224 6,600 -347 Descending Indianapolis Center
Fri 05:30:39 AM 39.7147 -83.5933 47° Northeast 194 223 6,200 -347 Descending Indianapolis Center
Fri 05:31:40 AM 39.7514 -83.5425 47° Northeast 191 220 5,900 -344 Descending Indianapolis Center
Fri 05:32:41 AM 39.7858 -83.4911 49° Northeast 187 215 5,500 -378 Descending Indianapolis Center
Fri 05:33:47 AM 39.8250 -83.4350 48° Northeast 186 214 5,100 -446 Descending Indianapolis Center
Fri 05:34:42 AM 39.8569 -83.3886 48° Northeast 187 215 4,600 -470 Descending Indianapolis Center
Fri 05:35:42 AM 39.8908 -83.3450 45° Northeast 186 214 4,200 -400 Descending Indianapolis Center
Fri 05:37:00 AM 39.9201 -83.2784 49° Northeast  Level FlightAware
Fri 05:44:00 AM 40.0667 -83.0667 37° Northeast  Level FlightAware
Fri 05:45:00 AM 40.0798 -83.0732 37° Northeast  Level Estimated
Fri 05:46:00 AM 40.0798 -83.0732 37° Northeast  Level Estimated

Login

Don't have an account? Register now (free) for customized features, flight alerts, and more!